Simultaneous Nadir Overpasses (SNOs) Predictions

Prediction of SNOs between LANDSAT-8 and NOAA-19 Satellite Orbit:

Table of predicted SNOs for the next 14.0 days since TLE Epoch: 10/28/2017
Index Date (LANDSAT-8) Time (LANDSAT-8) Lat,Lon (LANDSAT-8) SZA (LANDSAT-8 ) Date (NOAA-19) Time (NOAA-19) Lat,Lon (NOAA-19) SZA (NOAA-19 ) Distance(km) Time Diff (sec)
1 10/30/2017 02:43:10 76.77, 149.96 90.93 10/30/2017 02:42:48 76.76, 149.99 90.91 1.43 22
2 10/30/2017 03:32:38 -76.73, -42.51 89.11 10/30/2017 03:33:46 -76.70, -42.51 89.13 4.32 68
3 11/01/2017 08:16:55 -76.75,-113.52 88.37 11/01/2017 08:16:31 -76.79,-113.51 88.34 3.79 24
4 11/01/2017 09:06:21 76.74, 54.07 91.62 11/01/2017 09:07:32 76.72, 54.02 91.62 2.42 71
5 11/03/2017 13:50:37 76.80, -16.79 92.39 11/03/2017 13:50:17 76.79, -16.90 92.37 2.93 20
6 11/03/2017 14:40:06 -76.72, 150.58 87.70 11/03/2017 14:41:14 -76.74, 150.59 87.67 1.40 68
7 11/05/2017 19:24:22 -76.78, 79.72 86.96 11/05/2017 19:23:58 -76.79, 79.74 86.95 1.17 24
8 11/05/2017 20:13:49 76.72,-112.87 92.98 11/05/2017 20:15:00 76.72,-112.73 93.01 3.77 71
9 11/08/2017 00:58:03 76.82, 176.41 93.74 11/08/2017 00:57:44 76.81, 176.31 93.72 2.91 19
10 11/08/2017 01:47:32 -76.75, -16.20 86.33 11/08/2017 01:48:40 -76.75, -16.19 86.31 0.28 68
11 11/10/2017 06:31:48 -76.80, -87.08 85.65 11/10/2017 06:31:24 -76.81, -87.07 85.64 1.40 24




NCC Satellite Simultaneous Nadir Overpasses (SNOs) Prediction Service
